Starlink 11374

operational
NORAD ID: 61581 Int'l Des: 2024-187 Owner: SPXS Country: US Constellation: starlink
LEOCIRCULAR

关于 Starlink 11374

正在加载描述...

实时位置

正在加载3D地球...

即将过境

高度历史

Altitude vs Time

uPlot chart will show altitude changes over time

两行轨道根数

1 61581U 24187H 25306.02165243 .00001589 00000-0 17973-4 0 9996
2 61581 53.1600 205.9775 0001243 76.2890 283.8267 15.69706492 60747
Epoch: Nov 2, 2025 • Age: 19 hours

当前状态

高度 360.1 km
速度 7.70 km/s
星下点 20.82°N, 30.67°E
发射日期 Oct 18, 2024
运行时间 1 years
类型 internet

技术详情

分类 Payload
质量 960.00 kg
干质量 910.00 kg
总质量 960.00 kg
长度 0.30 m
直径 4.10 m
跨度 29.00 m
形状 Box + pan
制造商 SPXS
平台类型 Starlink V2MD
阶段状态 In Orbit
所有者/国家 SPXS/US

大型星座

Loading constellations...